User: anonymous   Login
Location: Unspecified
(0.0000°N, 0.0000°E)
Time: 18:56:01
(UTC+00:00)
Language:

COSMOS 2429 - Orbit

View from above orbital plane
View from above orbital plane
View from above satellite
View from above satellite

Ground track
Ground track

The orbit data is extracted from the following two-line orbital elements,

1 32052U 07038A   19077.75573220 +.00000030 +00000-0 +15266-4 0  9992
2 32052 082.9846 356.5940 0039785 067.8592 292.6779 13.74912433577831
Epoch (UTC): 18 March 2019 18:08:15
Eccentricity: 0.0039785
inclination: 82.9846°
perigee height: 953 km
apogee height: 1011 km
right ascension of ascending node: 356.5940°
argument of perigee: 67.8592°
revolutions per day: 13.74912433
mean anomaly at epoch: 292.6779°
orbit number at epoch: 57783

The dashed part of the orbit path shows where the satellite is in the earth's shadow,  

DLR